When you browse on this site, cookies collect data to enhance your experience and personalize the content and advertising you see.
Visit our Privacy Policy to learn more. By continuing to use the site, you agree to this use of cookies and data.
  • In Germany
  • List of Countries
  • For 7 days
  • Water Temperature
  • Satellite Maps
  • Weather Map
  • Weather Widgets
  • user-avatar
    Login

    Hourly Weather Punakha

    Today, 21 January, Monday

    Time Temperature Precipitation Wind Pressure Humidity
    00:00 +5°C° 0 mm 2 mps 583 mmHg 55%
    01:00 +4°C° 0 mm 2 mps 583 mmHg 55%
    02:00 +4°C° 0 mm 2 mps 583 mmHg 54%
    03:00 +4°C° 0 mm 2 mps 583 mmHg 53%
    04:00 +4°C° 0 mm 2 mps 583 mmHg 52%
    05:00 +4°C° 0 mm 2 mps 583 mmHg 51%
    06:00 +3°C° 0 mm 2 mps 583 mmHg 49%
    07:00 +6°C° 0 mm 2 mps 584 mmHg 44%
    08:00 +9°C° 0 mm 1 mps 586 mmHg 40%
    09:00 +11°C° 0 mm 0 mps 587 mmHg 35%
    10:00 +13°C° 0 mm 1 mps 587 mmHg 35%
    11:00 +14°C° 0 mm 2 mps 587 mmHg 35%
    12:00 +16°C° 0 mm 2 mps 587 mmHg 35%
    13:00 +15°C° 0 mm 2 mps 587 mmHg 38%
    14:00 +15°C° 0 mm 2 mps 586 mmHg 41%
    15:00 +14°C° 0 mm 3 mps 586 mmHg 44%
    16:00 +12°C° 0 mm 2 mps 585 mmHg 56%
    17:00 +9°C° 0 mm 2 mps 584 mmHg 68%
    18:00 +7°C° 0 mm 2 mps 583 mmHg 79%
    19:00 +6°C° 0 mm 2 mps 584 mmHg 76%
    20:00 +6°C° 0 mm 2 mps 584 mmHg 73%
    21:00 +5°C° 0 mm 2 mps 584 mmHg 70%
    22:00 +5°C° 0 mm 2 mps 584 mmHg 67%
    23:00 +5°C° 0 mm 2 mps 584 mmHg 64%

    Tomorrow, 22 January, Tuesday

    Time Temperature Precipitation Wind Pressure Humidity
    00:00 +4°C° 0 mm 2 mps 584 mmHg 61%
    01:00 +4°C° 0 mm 2 mps 584 mmHg 58%
    02:00 +4°C° 0 mm 2 mps 584 mmHg 54%
    03:00 +4°C° 0 mm 2 mps 583 mmHg 50%
    04:00 +3°C° 0 mm 2 mps 584 mmHg 48%
    05:00 +3°C° 0 mm 2 mps 584 mmHg 45%
    06:00 +2°C° 0 mm 3 mps 584 mmHg 43%
    07:00 +5°C° 0 mm 2 mps 585 mmHg 38%
    08:00 +9°C° 0 mm 1 mps 586 mmHg 32%
    09:00 +11°C° 0 mm 1 mps 588 mmHg 27%
    10:00 +13°C° 0 mm 1 mps 588 mmHg 25%
    11:00 +15°C° 0 mm 1 mps 589 mmHg 22%
    12:00 +16°C° 0 mm 1 mps 589 mmHg 20%
    13:00 +16°C° 0 mm 2 mps 588 mmHg 24%
    14:00 +15°C° 0 mm 2 mps 587 mmHg 28%
    15:00 +14°C° 0 mm 3 mps 586 mmHg 32%
    16:00 +12°C° 0 mm 2 mps 585 mmHg 46%
    17:00 +9°C° 0 mm 2 mps 585 mmHg 59%
    18:00 +8°C° 0 mm 1 mps 584 mmHg 72%
    19:00 +7°C° 0 mm 1 mps 584 mmHg 69%
    20:00 +7°C° 0 mm 1 mps 584 mmHg 67%
    21:00 +5°C° 0 mm 2 mps 585 mmHg 65%
    22:00 +5°C° 0 mm 2 mps 585 mmHg 62%
    23:00 +5°C° 0 mm 2 mps 584 mmHg 59%

    Day after tomorrow, 23 January, Wednesday

    Time Temperature Precipitation Wind Pressure Humidity
    00:00 +4°C° 0 mm 2 mps 584 mmHg 56%
    01:00 +4°C° 0 mm 2 mps 584 mmHg 53%
    02:00 +4°C° 0 mm 2 mps 584 mmHg 50%
    03:00 +4°C° 0 mm 2 mps 583 mmHg 47%
    04:00 +4°C° 0 mm 2 mps 583 mmHg 47%
    05:00 +4°C° 0 mm 2 mps 583 mmHg 46%
    06:00 +4°C° 0 mm 2 mps 583 mmHg 46%
    07:00 +5°C° 0.1 mm 2 mps 584 mmHg 45%
    08:00 +8°C° 0.1 mm 1 mps 585 mmHg 44%
    09:00 +9°C° 0.1 mm 1 mps 586 mmHg 43%
    10:00 +10°C° 0.1 mm 1 mps 586 mmHg 43%
    11:00 +11°C° 0.1 mm 1 mps 586 mmHg 43%
    12:00 +13°C° 0.1 mm 1 mps 586 mmHg 43%
    13:00 +12°C° 0.1 mm 1 mps 586 mmHg 47%
    14:00 +11°C° 0.1 mm 1 mps 585 mmHg 51%
    15:00 +11°C° 0.1 mm 1 mps 584 mmHg 55%
    16:00 +9°C° 0.1 mm 1 mps 583 mmHg 61%
    17:00 +8°C° 0.1 mm 1 mps 583 mmHg 67%
    18:00 +7°C° 0.1 mm 1 mps 582 mmHg 72%
    19:00 +7°C° 0.2 mm 1 mps 583 mmHg 72%
    20:00 +6°C° 0.2 mm 1 mps 583 mmHg 71%
    21:00 +6°C° 0.2 mm 1 mps 584 mmHg 71%
    22:00 +6°C° 0.1 mm 1 mps 584 mmHg 71%
    23:00 +6°C° 0.1 mm 1 mps 584 mmHg 71%

    24 January, Thursday

    Time Temperature Precipitation Wind Pressure Humidity
    00:00 +6°C° 0.1 mm 1 mps 584 mmHg 71%
    01:00 +4°C° 0 mm 2 mps 583 mmHg 71%
    02:00 +4°C° 0 mm 2 mps 583 mmHg 72%
    03:00 +3°C° 0 mm 2 mps 583 mmHg 72%
    04:00 +3°C° 0 mm 2 mps 583 mmHg 70%
    05:00 +3°C° 0 mm 2 mps 583 mmHg 67%
    06:00 +3°C° 0 mm 2 mps 583 mmHg 64%
    07:00 +5°C° 0 mm 2 mps 585 mmHg 58%
    08:00 +7°C° 0 mm 2 mps 586 mmHg 51%
    09:00 +9°C° 0 mm 2 mps 587 mmHg 44%
    10:00 +10°C° 0 mm 2 mps 588 mmHg 42%
    11:00 +13°C° 0 mm 2 mps 588 mmHg 40%
    12:00 +14°C° 0 mm 2 mps 588 mmHg 38%
    13:00 +14°C° 0 mm 2 mps 587 mmHg 40%
    14:00 +14°C° 0 mm 2 mps 587 mmHg 42%
    15:00 +14°C° 0 mm 2 mps 586 mmHg 44%
    16:00 +10°C° 0 mm 2 mps 585 mmHg 52%
    17:00 +8°C° 0 mm 2 mps 585 mmHg 60%
    18:00 +6°C° 0 mm 2 mps 584 mmHg 68%
    19:00 +5°C° 0 mm 2 mps 585 mmHg 61%
    20:00 +3°C° 0 mm 3 mps 585 mmHg 54%
    21:00 +2°C° 0 mm 3 mps 586 mmHg 47%
    22:00 +2°C° 0 mm 3 mps 585 mmHg 46%
    23:00 +2°C° 0 mm 3 mps 585 mmHg 44%

    25 January, Friday

    Time Temperature Precipitation Wind Pressure Humidity
    00:00 +2°C° 0 mm 3 mps 585 mmHg 43%
    01:00 +2°C° 0 mm 3 mps 585 mmHg 42%
    02:00 +1°C° 0 mm 3 mps 585 mmHg 40%
    03:00 +1°C° 0 mm 3 mps 584 mmHg 39%
    04:00 +1°C° 0 mm 3 mps 584 mmHg 38%
    05:00 +1°C° 0 mm 3 mps 585 mmHg 37%
    06:00 +1°C° 0 mm 3 mps 585 mmHg 35%
    07:00 +3°C° 0 mm 3 mps 586 mmHg 34%
    08:00 +7°C° 0 mm 2 mps 587 mmHg 32%
    09:00 +9°C° 0 mm 2 mps 588 mmHg 31%
    10:00 +10°C° 0 mm 2 mps 588 mmHg 30%
    11:00 +13°C° 0 mm 2 mps 589 mmHg 29%
    12:00 +15°C° 0 mm 1 mps 589 mmHg 28%
    13:00 +14°C° 0 mm 2 mps 588 mmHg 32%
    14:00 +14°C° 0 mm 2 mps 587 mmHg 36%
    15:00 +13°C° 0 mm 2 mps 586 mmHg 40%
    16:00 +10°C° 0.1 mm 2 mps 586 mmHg 47%
    17:00 +8°C° 0.1 mm 2 mps 585 mmHg 54%
    18:00 +6°C° 0.1 mm 2 mps 585 mmHg 62%
    19:00 +6°C° 0.2 mm 2 mps 585 mmHg 62%
    20:00 +5°C° 0.2 mm 2 mps 585 mmHg 62%
    21:00 +5°C° 0.2 mm 2 mps 586 mmHg 63%
    22:00 +5°C° 0.3 mm 2 mps 585 mmHg 64%
    23:00 +4°C° 0.3 mm 2 mps 585 mmHg 65%

    26 January, Saturday

    Time Temperature Precipitation Wind Pressure Humidity
    00:00 +4°C° 0.3 mm 2 mps 585 mmHg 66%
    01:00 +4°C° 0.3 mm 2 mps 584 mmHg 67%
    02:00 +4°C° 0.3 mm 2 mps 584 mmHg 67%
    03:00 +4°C° 0.3 mm 2 mps 584 mmHg 68%
    04:00 +4°C° 0.6 mm 2 mps 583 mmHg 70%
    05:00 +3°C° 0.6 mm 2 mps 583 mmHg 73%
    06:00 +3°C° 0.6 mm 2 mps 583 mmHg 75%
    07:00 +4°C° 0.6 mm 2 mps 584 mmHg 74%
    08:00 +4°C° 0.6 mm 2 mps 584 mmHg 73%
    09:00 +5°C° 0.6 mm 2 mps 585 mmHg 72%
    10:00 +6°C° 0.6 mm 2 mps 585 mmHg 72%
    11:00 +6°C° 0.6 mm 2 mps 585 mmHg 72%
    12:00 +7°C° 0.6 mm 2 mps 585 mmHg 71%
    13:00 +7°C° 0.5 mm 2 mps 585 mmHg 72%
    14:00 +7°C° 0.5 mm 2 mps 584 mmHg 73%
    15:00 +7°C° 0.5 mm 2 mps 584 mmHg 74%
    16:00 +6°C° 0.5 mm 2 mps 584 mmHg 76%
    17:00 +5°C° 0.5 mm 2 mps 584 mmHg 77%
    18:00 +4°C° 0.5 mm 2 mps 584 mmHg 79%
    19:00 +4°C° 0.4 mm 2 mps 584 mmHg 79%
    20:00 +4°C° 0.4 mm 2 mps 584 mmHg 79%
    21:00 +4°C° 0.4 mm 2 mps 585 mmHg 78%
    22:00 +4°C° 0.4 mm 2 mps 585 mmHg 79%
    23:00 +3°C° 0.4 mm 2 mps 584 mmHg 79%
    Show more